Total_Precipitation_Accumulation
1.55 2.01 2.64 3.24 3.96 4.97 5.57 5.64 5.24 4.38 3.69 3.07 2.79 2.51 2.26 2.04 1.75 1.43 1.20 1.09 1.06 0.97 1.02 0.95 0.95 0.95 0.90 0.92 1.04 1.17 1.22 1.06 1.23 1.43 1.30 1.06 0.86 0.83 0.81 0.75 0.77 0.76 0.79
1.39 2.02 2.80 3.56 4.10 4.57 4.86 4.82 4.32 3.48 2.92 2.49 2.37 2.16 1.92 1.56 1.41 1.23 1.09 0.96 0.91 0.85 0.83 0.88 0.80 0.76 0.82 0.82 0.85 0.97 0.98 0.87 0.97 1.14 1.17 0.97 0.87 0.73 0.49 0.56 0.59 0.57 0.72
1.60 2.37 3.18 3.85 4.06 4.01 3.76 3.36 3.03 2.61 2.43 2.31 2.09 1.88 1.77 1.48 1.23 0.99 0.88 0.80 0.73 0.66 0.63 0.62 0.59 0.62 0.63 0.67 0.74 0.82 0.89 0.84 0.76 0.83 0.97 0.85 0.75 0.66 0.52 0.44 0.47 0.56 0.65
1.71 2.43 2.99 3.17 3.22 3.07 2.70 2.40 2.27 2.17 2.04 1.94 1.78 1.46 1.24 1.16 1.01 0.90 0.84 0.76 0.65 0.58 0.55 0.51 0.50 0.48 0.45 0.56 0.54 0.63 0.78 0.82 0.69 0.67 0.69 0.68 0.67 0.68 0.62 0.54 0.45 0.51 0.55
1.28 1.51 1.74 1.83 1.93 1.90 1.93 1.93 1.97 2.02 1.89 1.80 1.70 1.51 1.22 1.15 1.11 1.07 1.03 0.92 0.77 0.66 0.56 0.52 0.49 0.47 0.41 0.45 0.48 0.57 0.68 0.75 0.69 0.62 0.64 0.72 0.71 0.62 0.62 0.62 0.58 0.58 0.46
0.79 0.88 0.95 1.00 1.20 1.25 1.33 1.45 1.51 1.62 1.70 1.64 1.47 1.36 1.22 1.18 1.17 1.08 0.91 0.79 0.73 0.68 0.60 0.57 0.60 0.54 0.49 0.47 0.47 0.52 0.56 0.69 0.77 0.74 0.67 0.69 0.71 0.59 0.56 0.51 0.51 0.56 0.48
0.62 0.75 0.81 0.85 0.99 0.96 1.01 1.11 1.18 1.19 1.27 1.25 1.16 1.14 1.17 1.15 1.06 0.97 0.86 0.73 0.57 0.53 0.56 0.53 0.56 0.56 0.57 0.57 0.57 0.58 0.54 0.61 0.70 0.69 0.68 0.64 0.63 0.65 0.64 0.61 0.53 0.56 0.57
0.49 0.57 0.56 0.63 0.72 0.67 0.73 0.84 0.95 0.96 0.97 0.99 1.00 0.98 1.05 0.96 0.90 0.94 0.87 0.74 0.60 0.54 0.54 0.52 0.49 0.52 0.58 0.60 0.68 0.63 0.63 0.64 0.63 0.60 0.72 0.71 0.62 0.70 0.74 0.78 0.83 0.77 0.77
0.36 0.41 0.35 0.39 0.48 0.54 0.59 0.66 0.80 0.86 0.83 0.86 0.90 0.86 0.92 0.93 0.93 0.90 0.83 0.71 0.70 0.60 0.58 0.57 0.60 0.63 0.67 0.70 0.75 0.69 0.66 0.68 0.62 0.63 0.73 0.76 0.78 0.80 0.75 0.86 0.96 1.01 0.97
0.26 0.26 0.27 0.27 0.34 0.44 0.55 0.64 0.73 0.79 0.78 0.81 0.82 0.70 0.79 0.88 0.97 0.93 0.82 0.76 0.77 0.67 0.69 0.67 0.66 0.70 0.68 0.68 0.74 0.72 0.77 0.80 0.78 0.81 0.85 0.84 0.86 0.94 0.86 0.92 1.00 1.03 1.10
0.24 0.22 0.20 0.22 0.26 0.33 0.45 0.55 0.69 0.75 0.75 0.77 0.84 0.88 0.87 0.78 0.85 0.87 0.86 0.85 0.88 0.79 0.79 0.81 0.82 0.81 0.81 0.84 0.88 0.87 0.92 1.01 1.13 1.15 1.13 1.13 1.15 1.15 1.08 1.12 1.10 1.05 1.15
0.21 0.23 0.23 0.22 0.25 0.28 0.33 0.42 0.54 0.66 0.70 0.74 0.84 0.90 0.94 0.85 0.83 0.85 0.89 0.91 0.98 1.02 0.98 0.93 0.93 0.87 0.89 0.99 1.02 1.03 1.01 1.01 1.06 1.24 1.45 1.45 1.43 1.33 1.19 1.24 1.20 1.16 1.31
0.28 0.26 0.29 0.30 0.30 0.34 0.35 0.43 0.53 0.67 0.77 0.79 0.82 0.89 0.93 0.87 0.86 0.96 1.04 1.04 1.13 1.19 1.19 1.14 1.05 0.96 0.94 0.96 1.00 1.08 1.09 1.11 1.19 1.33 1.45 1.54 1.65 1.52 1.39 1.33 1.29 1.31 1.38
0.30 0.26 0.26 0.28 0.32 0.41 0.44 0.52 0.70 0.68 0.65 0.75 0.81 0.86 0.89 0.92 0.95 1.02 1.09 1.11 1.16 1.22 1.27 1.26 1.21 1.15 1.04 0.96 0.98 1.02 1.06 1.19 1.35 1.40 1.34 1.43 1.68 1.74 1.68 1.52 1.42 1.42 1.47
0.32 0.26 0.24 0.25 0.34 0.44 0.47 0.52 0.60 0.72 0.73 0.85 0.96 1.01 1.11 1.19 1.22 1.26 1.25 1.22 1.24 1.24 1.33 1.40 1.39 1.32 1.18 1.00 1.02 1.11 1.07 1.17 1.23 1.22 1.15 1.14 1.31 1.53 1.66 1.54 1.48 1.49 1.48
0.30 0.30 0.32 0.33 0.36 0.42 0.49 0.55 0.56 0.67 0.81 0.99 1.14 1.24 1.37 1.45 1.53 1.66 1.76 1.67 1.58 1.62 1.69 1.65 1.55 1.45 1.14 1.10 1.06 1.05 1.07 1.13 1.14 1.12 1.09 1.00 0.94 1.02 1.20 1.36 1.49 1.56 1.49
0.43 0.44 0.46 0.46 0.46 0.46 0.50 0.54 0.61 0.74 0.92 1.12 1.32 1.46 1.58 1.71 1.86 1.96 1.99 1.94 1.98 2.04 2.05 1.97 1.79 1.65 1.53 1.36 1.15 1.05 1.01 1.01 1.02 1.05 1.05 0.89 0.81 0.91 0.91 1.06 1.18 1.30 1.36
0.49 0.50 0.59 0.62 0.57 0.58 0.65 0.73 0.84 0.99 1.18 1.36 1.52 1.67 1.71 1.74 1.83 1.92 1.87 1.88 2.00 2.08 2.08 2.01 1.89 1.80 1.69 1.51 1.24 1.16 0.99 1.00 1.03 1.06 1.06 1.02 0.96 0.94 0.97 1.00 1.01 1.02 1.09
0.55 0.56 0.63 0.71 0.73 0.72 0.79 0.87 0.91 1.03 1.21 1.37 1.45 1.50 1.61 1.72 1.76 1.79 1.82 1.86 1.89 1.81 1.72 1.70 1.71 1.71 1.76 1.62 1.32 1.20 1.09 1.17 1.17 1.16 1.16 1.15 1.09 1.14 0.99 0.93 0.97 0.99 1.02
0.53 0.57 0.57 0.61 0.69 0.78 0.81 0.84 0.91 1.03 1.22 1.35 1.37 1.37 1.50 1.62 1.69 1.74 1.78 1.75 1.71 1.65 1.61 1.54 1.57 1.60 1.61 1.57 1.25 1.15 1.09 1.19 1.21 1.24 1.23 1.17 1.05 1.02 0.88 0.82 0.90 0.91 0.91
0.53 0.54 0.59 0.61 0.64 0.74 0.79 0.87 0.98 1.04 1.10 1.19 1.26 1.33 1.47 1.59 1.65 1.72 1.72 1.69 1.65 1.66 1.66 1.60 1.52 1.50 1.50 1.48 1.21 1.08 1.00 1.12 1.24 1.23 1.18 1.15 1.05 0.83 0.76 0.73 0.78 0.82 0.84
0.61 0.61 0.62 0.74 0.79 0.82 0.81 0.87 0.88 0.88 0.94 0.99 1.06 1.09 1.19 1.34 1.41 1.50 1.50 1.53 1.50 1.47 1.45 1.42 1.35 1.31 1.33 1.26 1.15 0.96 0.86 0.93 1.07 1.17 1.19 1.21 1.05 0.80 0.68 0.58 0.55 0.53 0.50
0.72 0.70 0.68 0.71 0.76 0.85 0.89 0.94 0.90 0.84 0.83 0.84 0.84 0.88 0.95 1.12 1.28 1.33 1.32 1.34 1.35 1.32 1.29 1.26 1.21 1.18 1.15 1.09 0.91 0.76 0.66 0.69 0.82 1.00 1.12 1.05 0.88 0.73 0.61 0.53 0.48 0.44 0.42
0.51 0.58 0.63 0.69 0.74 0.74 0.76 0.83 0.84 0.82 0.85 0.86 0.86 0.89 0.96 1.07 1.31 1.42 1.33 1.27 1.25 1.21 1.20 1.15 1.16 1.19 1.21 1.15 0.95 0.74 0.59 0.63 0.75 0.86 0.91 0.92 0.91 0.87 0.80 0.68 0.57 0.48 0.50
0.37 0.42 0.47 0.50 0.53 0.53 0.57 0.62 0.67 0.75 0.78 0.77 0.73 0.74 0.82 0.95 1.16 1.30 1.30 1.15 1.12 1.14 1.16 1.13 1.11 1.06 1.03 1.01 0.90 0.76 0.73 0.77 0.85 0.85 0.91 0.93 1.00 1.04 1.03 0.97 0.87 0.80 0.77
0.34 0.39 0.42 0.45 0.47 0.49 0.56 0.64 0.72 0.81 0.84 0.81 0.75 0.73 0.75 0.85 1.04 1.25 1.33 1.16 0.97 0.96 0.95 0.90 0.87 0.83 0.76 0.72 0.71 0.68 0.67 0.73 0.76 0.73 0.88 1.01 1.09 1.16 1.17 1.17 1.10 1.00 0.91